Location: Chilton Park
(37.7711°N, 100.0276°W)
Time: 10:08:15
(UTC+00:00)

Cosmos 2227 Rocket - Pass Details

Date: 07 July 2022
Orbit: 840 x 844 km, 71.0° (Epoch: 14 August)

Event Time Altitude Azimuth Distance (km) Brightness Sun altitude
Exits shadow 07:44:42 31° 107° (ESE) 1,439 3.3 -28.0°
Maximum altitude 07:44:52 31° 103° (ESE) 1,438 3.4 -28.0°
Drops below altitude 10° 07:49:46 10° 43° (NE) 2,468 5.4 -27.8°
Sets 07:52:27 0° 33° (NNE) 3,407 6.5 -27.6°
